Dewpoint
52 53 53 53 54 55 54 54 54 54 55 56 56 56 56 57 57 57 57 58 58 59 59 60 60 60 60 60 60 60 60 58 49 40 34 50 58 65 67 68 67 66 63 43 31 27 22 22 21 20 26 31 34 35 35 38 34 34 26 17 13 15 9 19 15 14 24 20 20 20 21 21 19 22 23 23 22 21 21 21 24 26 27 28 29 30 30 31
53 53 53 53 54 54 54 53 54 54 55 56 56 56 56 57 57 57 58 58 58 59 59 60 60 60 60 60 60 60 59 57 46 36 41 60 65 67 67 66 67 65 58 35 27 22 20 20 19 22 23 22 36 27 35 34 38 31 15 13 13 13 23 21 20 20 20 21 21 23 23 22 22 22 23 20 20 20 20 21 22 25 27 28 29 29 29 30
53 53 53 53 53 53 54 53 53 54 55 55 55 56 56 56 57 57 57 58 58 58 59 59 60 60 60 60 60 60 59 55 42 32 46 64 66 67 67 67 66 65 46 32 25 23 22 22 21 18 16 18 21 25 32 29 30 24 28 19 19 24 22 23 21 22 24 23 21 22 23 22 23 22 24 20 19 20 19 19 20 20 26 27 28 29 30 30
53 53 52 52 52 53 54 53 54 54 55 55 56 56 56 57 57 57 58 58 58 58 58 59 59 60 60 60 60 59 60 54 32 33 51 64 66 66 63 62 61 58 41 29 28 28 25 23 21 19 16 17 19 22 26 28 31 29 26 20 21 16 19 22 23 23 22 23 24 22 24 21 23 24 22 20 19 18 19 24 24 24 26 27 28 29 30 30
51 53 53 52 53 53 53 53 53 55 55 55 56 56 56 57 57 57 58 58 58 58 58 59 59 60 60 60 60 58 53 32 30 37 57 65 65 61 61 59 57 43 36 29 29 27 26 23 20 19 21 14 19 19 19 28 28 30 20 20 17 17 21 22 24 25 24 25 23 23 19 20 24 23 22 21 19 19 24 26 27 27 27 27 28 29 30 30
53 53 53 54 53 53 53 54 54 54 55 55 55 56 57 57 57 57 58 58 58 58 58 59 59 59 60 60 59 58 48 25 27 47 63 64 65 61 59 55 58 44 30 28 28 26 25 21 18 19 14 13 16 16 22 24 26 23 21 22 23 24 24 23 24 27 25 24 22 21 22 22 20 20 20 21 20 25 28 28 28 28 28 28 29 30 29 32
53 53 53 53 54 53 53 53 53 54 54 56 56 57 57 57 57 57 58 58 58 58 59 59 59 60 60 58 58 49 37 35 34 55 62 63 63 62 59 57 57 39 31 28 25 27 22 19 17 17 15 16 17 18 21 21 28 22 19 23 25 25 22 23 25 27 25 23 22 22 22 20 20 19 22 20 26 27 28 28 28 28 28 28 28 29 30 31
54 54 52 53 53 52 53 53 53 54 55 56 56 57 57 57 57 58 58 58 58 58 58 59 59 59 59 57 49 42 35 36 48 55 60 61 56 52 53 44 39 38 32 27 25 23 23 19 15 17 15 15 19 19 22 22 22 21 20 21 26 24 23 24 24 25 24 23 23 23 21 20 20 20 21 20 26 27 27 28 28 28 28 28 28 28 30 31
55 54 52 53 53 53 51 53 54 54 54 56 56 56 57 57 58 58 58 58 58 58 58 59 59 59 59 53 41 32 27 48 53 54 58 52 48 44 47 39 36 34 29 28 25 28 25 21 16 17 18 17 19 19 21 21 20 22 22 22 23 22 22 23 23 23 24 23 23 22 21 20 20 21 20 23 26 27 27 27 28 27 27 27 28 28 29 29
56 54 53 53 53 53 53 53 54 54 55 56 56 56 57 57 57 58 58 58 58 58 58 59 59 59 53 50 38 26 46 50 54 54 54 47 44 41 39 40 32 31 29 27 27 26 23 25 25 22 26 19 20 21 21 22 22 23 22 22 22 22 22 22 21 21 21 22 21 20 19 19 21 21 19 25 27 27 27 26 27 27 27 27 27 28 28 30
56 55 54 54 53 53 53 54 54 54 56 55 56 57 57 57 57 58 58 58 58 58 58 59 59 57 49 36 32 24 53 54 52 49 45 44 39 36 39 39 34 32 28 29 27 30 28 26 29 25 27 20 22 22 22 22 23 22 22 22 22 22 22 22 21 21 21 21 21 20 19 20 21 22 20 24 26 26 25 25 26 27 27 26 27 28 31 29
56 55 54 54 53 52 53 53 53 54 55 56 56 57 57 57 58 57 57 57 58 58 58 58 58 53 42 35 32 37 44 52 52 46 45 46 44 45 45 39 36 41 30 27 34 38 40 32 30 23 22 25 22 23 23 23 22 22 22 21 21 22 21 22 21 22 23 21 21 21 20 19 20 20 22 25 26 26 25 25 25 26 27 29 27 28 29 30
56 56 55 54 54 53 53 54 54 54 55 56 57 57 57 57 57 57 57 57 57 58 58 59 57 53 45 36 37 42 46 51 47 44 43 44 43 40 41 43 39 35 36 36 35 40 39 32 27 26 27 26 25 23 24 24 22 23 22 22 22 21 21 22 22 22 21 21 21 21 19 18 19 20 23 25 25 25 24 24 25 25 26 27 27 28 29 30
56 57 57 55 54 53 53 53 54 55 55 56 58 58 57 57 57 57 57 57 58 58 58 58 58 49 40 34 39 47 52 48 43 41 42 45 40 44 41 42 39 37 43 38 40 39 34 28 31 26 27 25 25 27 23 23 23 23 22 23 23 22 20 23 23 22 21 21 21 21 22 17 21 20 24 25 25 24 23 23 24 25 25 26 29 28 29 29
56 57 57 56 55 54 54 54 54 55 55 57 59 58 57 57 57 57 57 58 58 58 57 58 57 50 37 35 44 53 59 49 42 44 46 42 38 40 36 36 37 36 35 36 35 33 31 32 29 26 25 25 25 25 24 23 22 23 22 22 26 24 21 23 24 23 22 21 21 21 23 20 19 20 23 25 25 23 22 22 24 25 25 26 27 26 26 28
56 56 57 56 56 55 54 54 54 55 56 58 58 58 57 57 56 57 58 58 58 58 57 55 46 42 37 33 45 56 49 42 41 49 46 44 48 39 39 37 36 34 32 31 32 30 30 30 27 29 25 25 24 25 25 25 25 23 23 27 25 27 24 22 23 23 24 20 22 21 20 21 19 20 20 23 24 23 23 22 24 24 25 25 25 26 26 28
55 56 57 57 56 55 55 55 54 55 56 58 58 58 58 58 57 58 58 58 57 57 55 44 39 39 32 39 41 38 37 47 48 48 45 43 43 39 36 36 32 32 32 31 32 32 30 28 29 32 26 25 25 26 26 27 26 25 27 24 27 23 23 21 23 23 28 22 20 21 21 21 20 21 21 22 23 23 21 21 23 25 25 25 26 26 26 26
56 56 57 57 56 55 55 54 55 56 57 58 58 58 56 57 57 56 56 58 57 52 46 42 42 42 35 37 33 34 41 41 49 44 45 40 41 35 34 31 32 31 31 30 32 29 31 28 28 27 27 26 24 26 26 22 26 25 26 28 25 23 23 22 22 23 23 22 21 21 20 21 22 21 22 21 21 21 21 20 22 24 25 26 26 25 25 26
57 57 58 57 56 55 55 55 55 56 57 59 58 58 57 56 57 54 49 48 46 41 36 37 37 29 21 35 37 40 45 45 45 45 39 39 38 36 36 33 33 30 31 29 29 29 31 33 33 29 28 26 24 24 26 25 22 24 24 24 25 25 24 23 23 24 24 23 23 23 23 23 24 23 22 22 22 22 21 21 22 24 24 25 25 26 26 28
57 58 58 58 57 57 56 55 55 56 58 58 57 57 55 50 50 44 46 46 41 32 38 37 36 34 35 35 39 41 44 46 41 43 42 40 36 35 34 32 37 32 29 31 32 28 34 31 29 28 28 27 26 25 24 23 25 25 27 27 25 25 25 25 24 26 24 23 23 24 24 25 25 25 23 23 23 23 21 21 24 25 25 26 25 27 28 29
57 57 57 58 58 57 56 56 56 56 58 58 55 52 35 29 30 19 42 42 43 39 37 38 36 35 35 40 43 38 36 37 38 43 41 40 37 34 31 32 31 31 31 30 33 28 29 30 30 29 27 26 26 25 24 24 24 24 26 27 25 28 25 26 25 25 25 24 25 26 25 26 26 26 26 25 22 22 22 22 24 25 25 27 28 28 29 28
57 57 57 57 58 57 56 55 56 58 58 57 55 48 44 47 47 45 42 31 42 42 41 39 40 37 37 37 40 40 40 34 37 42 44 39 35 32 31 31 30 29 30 31 30 30 30 28 28 28 28 27 26 26 25 24 26 27 26 27 27 27 28 27 25 25 24 24 24 25 25 25 25 25 26 26 23 23 23 24 25 25 27 27 28 28 29 29
56 56 56 57 57 57 56 56 57 58 57 53 52 51 50 49 48 48 47 42 38 42 42 41 40 38 37 37 38 38 34 32 32 41 40 41 34 33 31 29 29 28 29 28 29 31 30 30 28 28 28 27 26 26 25 26 26 26 27 27 27 29 29 28 25 25 24 24 26 26 25 26 27 28 28 29 25 27 31 28 31 27 27 27 27 28 28 28
56 55 56 58 58 57 57 56 56 57 55 53 52 51 53 50 49 45 46 37 34 42 41 40 40 39 38 37 38 36 33 33 32 37 40 37 33 34 31 29 28 28 27 27 27 28 28 27 27 28 28 27 26 26 26 25 26 30 30 29 27 28 28 27 25 26 25 25 27 25 26 27 28 28 28 28 28 27 28 28 28 31 33 30 31 31 29 27
56 55 56 58 57 57 57 57 55 55 54 53 52 53 54 56 54 52 43 33 35 39 48 46 46 44 40 43 39 35 35 34 34 37 39 35 33 31 30 30 29 27 27 28 27 28 27 27 27 27 28 27 27 26 28 31 27 28 31 29 27 27 26 26 26 25 26 29 27 26 27 28 29 30 29 26 27 26 27 27 27 27 30 31 30 30 30 31
56 56 56 57 57 57 57 53 53 53 53 51 52 54 55 56 57 52 43 31 29 37 41 37 44 38 44 39 39 36 36 33 38 41 38 37 38 33 29 28 28 28 27 28 27 29 27 27 29 28 28 31 29 28 30 29 30 30 28 29 27 26 27 27 27 29 29 28 28 28 27 26 27 25 23 25 24 24 26 27 27 27 27 29 29 28 29 29
56 56 57 57 57 57 51 50 51 54 49 50 53 55 55 57 52 52 27 27 26 39 35 42 40 37 47 38 38 37 31 33 39 40 38 41 32 35 29 28 29 29 27 28 32 29 30 26 30 32 28 31 32 28 30 28 29 29 37 32 29 27 30 30 30 30 30 33 32 27 27 27 27 28 29 24 24 24 25 26 26 26 27 27 27 27 28 28
56 56 57 58 57 56 52 51 52 50 47 53 55 55 55 54 51 48 34 23 21 41 36 39 37 42 42 39 40 34 34 36 35 36 35 37 35 32 31 29 29 29 28 31 29 35 30 32 31 31 32 30 30 31 33 29 29 33 34 34 32 29 31 32 32 31 31 29 28 28 31 26 26 28 28 25 26 26 26 26 26 26 26 26 27 27 28 27
56 56 56 57 57 57 56 53 52 50 53 53 54 55 55 52 49 38 30 22 40 34 44 35 42 38 38 39 38 35 34 33 32 34 39 35 36 33 31 31 31 30 28 30 30 38 32 35 31 30 32 29 32 31 31 29 28 37 35 33 33 33 32 32 31 31 31 28 27 29 29 27 26 29 27 26 26 25 25 24 26 26 26 26 26 27 27 26
56 56 57 57 57 56 56 57 53 55 53 53 53 54 52 48 41 29 30 24 38 30 36 35 35 36 37 36 36 33 32 33 34 35 35 34 34 36 33 34 31 30 32 29 33 33 30 31 37 31 32 32 30 31 35 35 31 34 33 33 32 32 32 30 30 29 29 26 27 29 29 28 26 29 27 28 29 25 24 24 25 26 26 26 26 27 27 26
56 56 56 57 55 55 56 52 54 53 52 52 52 51 48 44 34 24 26 27 32 37 34 33 34 37 36 35 35 35 34 33 33 34 33 32 32 32 32 32 33 33 34 33 32 35 31 30 34 34 31 32 31 33 33 34 35 34 33 32 31 30 28 28 27 29 27 27 29 29 29 28 26 27 29 26 24 24 23 23 25 25 25 26 26 26 25 26
56 56 56 56 57 57 53 52 54 52 50 50 50 48 41 34 37 29 25 20 18 30 34 33 35 36 35 35 37 34 32 32 33 33 32 32 33 31 31 32 33 31 31 31 31 36 34 34 34 35 35 31 34 32 30 33 34 33 31 30 29 28 26 25 26 24 25 26 24 24 29 28 27 27 24 23 23 23 24 24 24 25 25 26 26 26 25 27
56 56 56 56 56 56 55 55 52 50 49 49 49 47 38 32 29 33 30 23 17 36 33 36 34 36 36 36 36 34 37 32 33 33 34 35 33 34 34 33 35 34 30 33 33 32 33 37 34 36 33 31 32 31 29 29 29 30 30 29 28 28 26 25 25 25 25 26 23 22 28 26 26 23 27 26 23 24 25 27 27 25 25 26 26 26 25 28
56 56 56 56 57 57 57 55 53 49 47 48 46 44 42 32 29 35 31 28 32 33 34 35 35 36 35 34 37 35 34 34 33 33 33 34 34 33 34 33 34 35 36 34 31 32 29 31 33 35 32 32 31 32 32 32 29 29 33 31 30 29 28 26 25 24 25 24 21 25 25 24 24 22 23 23 23 23 24 26 29 29 27 27 26 27 27 27
56 56 57 57 57 57 56 56 53 48 47 47 44 38 34 32 31 29 31 31 35 31 33 35 36 37 36 37 33 34 35 33 33 32 33 34 32 33 33 33 34 35 36 32 34 32 32 31 33 35 36 31 32 33 33 34 32 31 33 34 30 30 32 27 26 23 24 22 22 24 23 23 22 23 25 24 24 23 24 25 26 26 26 28 26 26 27 26
55 56 57 55 55 57 57 55 52 48 46 46 41 36 35 33 31 34 32 33 32 34 32 34 38 35 35 35 33 35 36 35 32 33 34 34 34 34 36 35 33 34 34 31 34 29 32 29 36 34 30 31 32 32 32 33 29 31 31 29 30 32 30 29 27 26 25 24 23 25 22 24 23 22 23 23 23 22 24 24 24 25 26 27 26 26 26 26
54 55 52 54 55 57 58 56 52 48 48 46 40 35 36 36 35 35 33 30 32 32 35 31 33 32 34 33 34 33 34 35 35 34 32 35 33 33 35 35 36 34 34 33 33 35 31 31 32 34 31 29 31 33 33 31 34 31 28 30 34 32 32 29 26 26 24 23 25 24 23 21 22 22 25 23 22 22 23 23 24 25 26 26 27 27 27 27
54 54 53 53 56 58 58 55 54 49 48 44 39 37 39 37 35 31 36 32 32 32 32 30 30 35 33 33 33 32 34 33 33 33 33 33 31 35 34 34 35 34 34 35 32 35 34 28 31 31 33 32 30 32 30 33 34 30 30 35 29 27 26 28 27 24 24 24 24 22 22 22 23 24 20 22 22 21 22 24 24 25 25 26 27 27 27 27
54 53 49 53 57 58 57 55 53 50 46 40 39 38 38 39 35 35 34 32 35 32 30 33 29 35 33 33 34 33 33 31 34 32 32 33 30 34 33 35 35 34 34 33 32 33 35 29 29 32 30 31 30 32 28 29 33 33 32 30 34 29 28 27 27 28 25 24 24 25 22 22 27 23 21 21 22 23 22 24 23 24 25 25 26 27 27 27
52 49 47 54 58 58 56 54 50 48 44 38 40 39 40 39 37 36 36 34 34 31 33 32 34 29 33 34 35 32 35 33 33 33 32 34 32 33 32 35 34 35 33 35 35 37 31 31 27 29 32 30 27 30 29 30 28 28 27 27 30 30 30 27 29 27 24 23 23 22 22 24 24 23 23 22 21 23 23 24 25 25 25 26 27 27 28 28
53 49 49 56 57 57 54 51 46 42 41 43 42 41 41 40 39 38 38 36 37 33 30 33 31 31 35 33 32 34 34 33 33 32 33 33 31 30 33 34 36 34 34 35 34 33 31 30 28 27 28 27 27 30 29 31 30 28 28 28 28 28 27 25 25 29 27 24 24 22 22 26 26 24 23 22 22 23 25 26 26 25 25 27 28 28 28 28
49 43 47 56 57 55 50 43 43 45 43 41 40 42 41 42 41 41 39 37 37 35 36 37 35 34 34 34 35 35 35 33 34 34 34 33 33 31 34 34 34 36 34 31 32 35 33 35 31 28 28 28 29 30 29 29 29 29 29 29 30 29 28 26 24 26 26 25 27 25 23 24 25 25 24 24 23 24 26 27 27 26 26 27 28 29 29 29
47 45 54 56 56 53 48 42 43 43 41 43 46 45 45 42 42 42 39 37 37 36 39 37 35 36 36 35 35 34 34 34 35 34 35 35 34 32 38 33 36 35 35 33 35 33 35 30 28 29 30 31 29 31 33 30 30 30 30 31 31 28 29 27 27 26 25 26 24 24 23 25 26 27 25 24 26 25 25 27 27 26 27 28 29 29 28 28
48 48 49 55 56 53 46 37 38 40 42 43 44 44 45 44 42 41 40 39 37 37 37 39 38 35 36 38 35 34 34 31 37 36 34 36 34 34 38 34 33 35 34 33 35 35 30 30 30 28 28 28 29 29 29 32 31 28 28 29 31 32 33 32 29 26 24 27 26 23 22 24 28 27 28 26 23 23 23 25 26 27 27 28 28 29 29 28
48 48 49 51 54 52 44 44 41 39 40 40 41 41 43 44 45 40 40 39 39 38 39 37 37 37 37 39 38 36 36 34 32 37 37 37 35 37 35 38 33 33 34 44 39 37 32 31 30 28 27 26 26 26 26 27 27 28 30 30 31 31 31 28 26 27 25 27 28 25 23 26 25 27 24 25 24 23 25 25 26 29 27 27 28 30 29 29
45 38 44 46 49 49 48 48 45 41 39 39 38 39 41 41 43 44 43 41 38 39 37 39 39 38 38 39 37 36 36 36 35 35 36 35 39 37 38 33 33 35 37 38 37 35 33 35 31 30 29 28 29 30 35 34 28 27 28 29 30 31 31 30 28 27 26 27 26 27 27 26 23 25 25 25 26 24 23 23 23 27 28 28 28 30 30 29
45 41 41 38 45 45 44 47 44 43 39 40 35 39 38 40 41 44 45 42 41 39 40 39 40 38 38 38 37 37 37 36 36 36 37 36 40 39 37 39 36 35 37 38 37 34 28 31 33 32 32 32 32 34 33 32 30 29 29 28 30 30 30 30 28 26 29 26 25 28 29 28 26 24 27 28 27 25 25 24 23 25 26 28 29 29 31 28
39 41 45 45 39 35 38 40 45 43 41 41 39 41 39 38 39 39 44 44 43 41 41 40 40 39 38 37 37 36 36 36 37 35 37 38 38 38 35 37 36 37 37 37 40 34 30 29 32 33 31 32 32 31 30 31 30 30 30 30 29 30 30 29 30 30 30 27 25 30 30 29 27 24 25 27 26 24 25 25 24 24 26 27 28 28 28 27
45 42 44 46 41 41 41 42 42 43 42 41 40 40 39 39 37 39 42 43 44 43 41 37 39 39 38 38 38 36 36 35 34 37 35 35 36 36 34 36 37 37 36 35 33 35 31 29 31 33 32 32 32 32 32 31 30 29 31 31 31 30 30 29 30 30 30 29 29 31 30 30 29 27 26 27 29 27 26 26 25 26 26 26 27 27 27 26
40 42 38 43 42 40 40 41 41 41 40 42 38 39 39 38 38 39 41 42 39 41 44 40 39 40 40 39 39 36 37 37 36 35 38 37 35 36 34 34 33 36 35 32 34 36 30 27 32 34 32 31 33 33 34 33 32 29 31 32 31 30 30 30 29 30 30 29 29 29 30 30 29 29 28 30 30 29 27 25 24 26 27 26 26 26 26 26
43 42 45 42 37 40 40 39 39 39 37 41 39 39 39 39 39 39 39 41 40 41 43 41 40 40 41 40 40 38 39 38 38 38 39 39 34 36 34 35 35 34 34 33 34 34 35 30 37 34 30 30 32 32 33 33 31 30 30 30 30 30 29 29 29 28 28 28 28 29 28 28 29 31 32 30 28 27 27 26 25 26 26 26 26 26 26 26
44 45 44 44 36 39 38 38 39 37 33 38 40 39 39 39 40 41 40 42 42 43 43 43 43 41 40 41 40 40 40 41 40 41 40 39 38 38 36 40 36 34 33 33 35 32 33 31 31 32 30 30 32 33 32 31 30 28 29 29 30 30 30 30 29 30 29 29 28 28 27 28 31 31 28 28 26 26 26 27 28 28 28 26 26 26 27 27